Greenville, AL

5:25 PM CST on February 12, 2016 (GMT -0600)
Greenville Municipal

Weather History for KPRN - February, 2015

Change the Weather History Date:

Tuesday, February 24, 2015

  Actual Average Record
Temperature  
Mean Temperature 40 °F -  
Max Temperature 45 °F 64 °F 81 °F (1982)
Min Temperature 35 °F 39 °F 19 °F (1989)
Degree Days  
Heating Degree Days 25    
Moisture  
Dew Point 35 °F    
Average Humidity 85    
Maximum Humidity 93    
Minimum Humidity 68    
Precipitation  
Precipitation 0.41 in - - ()
Sea Level Pressure  
Sea Level Pressure 30.09 in    
Wind  
Wind Speed 6 mph (NNW)    
Max Wind Speed 10 mph    
Max Gust Speed -    
Visibility 7 miles    
Events Rain    
Averages and records for this station are not official NWS values.
T = Trace of Precipitation, MM = Missing Value Source: NWS Daily Summary

Daily Weather History Graph

Daily Weather History Graph

Search for Another Location

Airport or City:

Trip Planner

Search our weather history database for the weather conditions in past years. The results will help you decide how hot, cold, wet, or windy it might be!

Date:

Astronomy

Feb. 24, 2015 Rise Set
Actual Time 6:19 AM CST 5:40 PM CST
Civil Twilight 5:54 AM CST 6:04 PM CST
Nautical Twilight 5:26 AM CST 6:33 PM CST
Astronomical Twilight 4:58 AM CST 7:01 PM CST
Moon 10:16 AM CST (2/24) No Moon Set
Length of Visible Light 12h 10m
Length of Day
11h 20m
Waxing Crescent, 40% of the Moon is Illuminated
Feb 24
Waxing Crescent
Feb 25
First Quarter
Mar 5
Full
Mar 13
Last Quarter
Mar 20
New

Hourly Weather History & Observations

Time (CST) Temp. Windchill Dew Point Humidity Pressure Visibility Wind Dir Wind Speed Gust Speed Precip Events Conditions
12:56 AM 37.9 °F 32.7 °F 36.0 °F 93% 30.18 in 4.0 mi North 6.9 mph - 0.09 in Rain Rain
1:56 AM 37.9 °F 32.1 °F 35.1 °F 89% 30.15 in 2.5 mi North 8.1 mph - 0.12 in Rain Heavy Rain
2:08 AM 37.4 °F 32.1 °F 35.6 °F 93% 30.13 in 3.0 mi NNE 6.9 mph - 0.04 in Rain Rain
2:27 AM 37.4 °F 30.3 °F 35.6 °F 93% 30.14 in 2.0 mi North 10.4 mph - 0.15 in Rain Heavy Rain
2:37 AM 37.4 °F 31.4 °F 35.6 °F 93% 30.14 in 3.0 mi NNW 8.1 mph - 0.17 in Rain Light Rain
2:56 AM 37.0 °F 29.8 °F 34.0 °F 89% 30.16 in 3.0 mi North 10.4 mph - 0.19 in Rain Light Rain
3:56 AM 37.0 °F 29.8 °F 35.1 °F 93% 30.14 in 5.0 mi North 10.4 mph - 0.01 in   Overcast
4:26 AM 37.4 °F 32.1 °F 33.8 °F 87% 30.13 in 6.0 mi North 6.9 mph - N/A   Overcast
4:44 AM 37.4 °F 32.1 °F 33.8 °F 87% 30.13 in 5.0 mi North 6.9 mph - N/A   Overcast
4:56 AM 37.0 °F 33.3 °F 34.0 °F 89% 30.14 in 5.0 mi North 4.6 mph - N/A   Overcast
5:56 AM 37.0 °F 31.6 °F 34.0 °F 89% 30.15 in 5.0 mi NNW 6.9 mph - N/A   Overcast
6:56 AM 36.0 °F 29.6 °F 34.0 °F 93% 30.16 in 3.0 mi North 8.1 mph - N/A   Overcast
7:07 AM 35.6 °F 29.2 °F 33.8 °F 93% 30.16 in 2.5 mi NNW 8.1 mph - N/A   Overcast
7:56 AM 36.0 °F 30.3 °F 34.0 °F 93% 30.16 in 3.0 mi North 6.9 mph - N/A   Overcast
8:56 AM 37.0 °F 31.0 °F 34.0 °F 89% 30.15 in 4.0 mi North 8.1 mph - N/A   Overcast
9:56 AM 37.9 °F 32.7 °F 35.1 °F 89% 30.14 in 6.0 mi NNW 6.9 mph - N/A   Overcast
10:56 AM 39.0 °F 34.0 °F 35.1 °F 86% 30.14 in 6.0 mi NNW 6.9 mph - N/A   Overcast
11:56 AM 39.9 °F 34.5 °F 35.1 °F 83% 30.11 in 6.0 mi NNW 8.1 mph - N/A   Haze
12:29 PM 39.2 °F 33.6 °F 35.6 °F 87% 30.10 in 9.0 mi NNW 8.1 mph - N/A   Overcast
12:56 PM 41.0 °F 38.0 °F 34.0 °F 76% 30.09 in 9.0 mi WNW 4.6 mph - N/A   Overcast
1:56 PM 42.1 °F 40.2 °F 36.0 °F 79% 30.06 in 9.0 mi West 3.5 mph - N/A   Overcast
2:10 PM 42.8 °F - 35.6 °F 76% 30.05 in 10.0 mi Calm Calm - N/A   Overcast
2:56 PM 44.1 °F 40.8 °F 37.0 °F 76% 30.04 in 10.0 mi West 5.8 mph - N/A   Overcast
3:26 PM 44.6 °F - 35.6 °F 71% 30.02 in 10.0 mi Calm Calm - N/A   Overcast
3:56 PM 44.1 °F - 36.0 °F 73% 30.02 in 10.0 mi Calm Calm - N/A   Overcast
4:56 PM 45.0 °F 42.6 °F 35.1 °F 68% 30.03 in 10.0 mi NNW 4.6 mph - N/A   Overcast
5:56 PM 44.1 °F - 36.0 °F 73% 30.02 in 10.0 mi Calm Calm - N/A   Overcast
6:31 PM 42.8 °F 41.1 °F 35.6 °F 76% 30.01 in 10.0 mi WNW 3.5 mph - N/A   Scattered Clouds
6:56 PM 39.9 °F - 36.0 °F 86% 30.01 in 10.0 mi Calm Calm - N/A   Clear
7:56 PM 37.0 °F 34.5 °F 35.1 °F 93% 30.02 in 9.0 mi WNW 3.5 mph - N/A   Clear
8:56 PM 39.0 °F 36.8 °F 35.1 °F 86% 30.01 in 10.0 mi NNW 3.5 mph - N/A   Clear
9:56 PM 37.9 °F - 34.0 °F 86% 30.01 in 10.0 mi Calm Calm - N/A   Clear
10:56 PM 37.9 °F - 34.0 °F 86% 29.99 in 10.0 mi Calm Calm - N/A   Clear
11:56 PM 39.0 °F 36.8 °F 33.1 °F 79% 30.01 in 10.0 mi NW 3.5 mph - N/A   Overcast